Regional Weather Roundup
Issued by NWS Green Bay, WI

Home | Current Version | Previous Version | Graphics & Text | Print | Product List | Glossary Off
Versions: 1 2 3 4 5 6 7 8 9 10 11 12 13 14 15 16 17 18 19 20 21 22 23 24 25 26 27 28 29 30 31 32 33 34 35 36 37 38 39 40 41 42 43 44 45 46 47 48 49 50

000
ASUS43 KGRB 010859
RWRGRB

NORTH-CENTRAL AND NORTHEAST WISCONSIN REGIONAL WEATHER ROUNDUP
NATIONAL WEATHER SERVICE GREEN BAY WI
300 AM CST SUN FEB 01 2015

WIZ005-009-010>012-018-019-011000-
NORTH CENTRAL WISCONSIN

CITY           SKY/WX    TMP DP  RH WIND       PRES   REMARKS
IRONWOOD       MOCLDY     3   0  85 E8        30.31S WCI -10
MANITOWISH WTR NOT AVBL
ARBOR VITAE    NOT AVBL
EAGLE RIVER    NOT AVBL
LAND O LAKES   NOT AVBL
RHINELANDER    CLOUDY     5  -2  72 NE6       30.24F WCI  -6
PHILLIPS       NOT AVBL
ANTIGO         NOT AVBL
TOMAHAWK       NOT AVBL
MERRILL        NOT AVBL
$$

WIZ013-073-011000-
NORTHEAST WISCONSIN

CITY           SKY/WX    TMP DP  RH WIND       PRES   REMARKS
IRON MOUNTAIN  CLOUDY     8   1  73 N6        30.28F WCI  -2
MARINETTE      CLOUDY    10   1  67 NE12      30.30F WCI  -4
$$

WIZ017-030-035>037-045-011000-
CENTRAL WISCONSIN

CITY           SKY/WX    TMP DP  RH WIND       PRES   REMARKS
MEDFORD        NOT AVBL
WAUSAU         CLOUDY    11   2  67 NE10G20   30.22S WCI  -3
MOSINEE        NOT AVBL
MARSHFIELD     LGT SNOW  15  10  80 NE16      30.18F WCI  -1
WISC RAPIDS    LGT SNOW  14   8  77 E14G22    30.22S WCI  -1
STEVENS POINT  NOT AVBL
WAUPACA        NOT AVBL
SHAWANO        NOT AVBL
CLINTONVILLE   NOT AVBL
$$

WIZ038-039-048-051-011000-
FOX VALLEY

CITY           SKY/WX    TMP DP  RH WIND       PRES   REMARKS
NWS GREEN BAY  CLOUDY    14   6  70 NE18G28   30.26F WCI  -3
APPLETON       NOT AVBL
OSHKOSH        LGT SNOW  14   9  80 NE21G30   30.21F WCI  -4
FOND DU LAC    LGT SNOW  16  11  80 NE23      30.20F WCI  -2
$$

WIZ022-050-052-011000-
EAST CENTRAL WISCONSIN

CITY           SKY/WX    TMP DP  RH WIND       PRES   REMARKS
STURGEON BAY   CLOUDY    12   5  73 N14       30.29F WCI  -3
MANITOWOC      NOT AVBL
SHEBOYGAN      LGT SNOW  17  13  84 N13       30.19F VSB 3/4 WCI   4
$$

LMZ563-521-522-541>543-011000-
LAKESHORE

STATION/POSITION TIME  TEMP    WIND        PRES    VSBY  WAVE
                       AIR SEA DIR/SP/G                  HT/PER
                 (UTC) (F)     (DEG/KT/KT) (MB)    (MI)  (FT/S)
SHEBOYGAN LKSHOR 0800   24      40/ 23/ 26 1024.0F
KEWAUNEE LKSHORE 0800   16      10/ 12/ 17 1024.1F
NORTHPORT PIER   0800   15      10/ 15/ 19 1026.8R
SISTER BAY LKSHO 0800   14      20/ 11/ 13   N/A
CHAMBERS ISLAND  0800   12     330/ 14/ 16 1026.8F
MENOMINEE LKSHOR 0800   12     350/ 13     1027.1F
$$


USA.gov is the U.S. government's official web portal to all federal, state and local government web resources and services.